FW5255 Weather Reports


Display with metric or nautical units.
time (UTC)temp
F
wind
direction
speed
MPH
gust
MPH
rain 1hr
in
rain 24hr
in
rain mn
in
humidity
%
barometer
mb
20260510230822 64 236 0.0 0.0 0.00 0.00 0.00 97 1014.0
20260510230317 64 236 0.0 0.0 0.00 0.00 0.00 97 1014.2
20260510225814 64 236 0.0 0.0 0.00 0.00 0.00 96 1013.8
20260510225310 64 236 0.0 0.0 0.00 0.00 0.00 96 1013.9
20260510224806 65 236 0.0 0.0 0.00 0.00 0.00 95 1013.4
20260510224302 65 236 0.0 0.0 0.00 0.00 0.00 95 1013.3
20260510223800 65 236 0.0 0.0 0.00 0.00 0.00 94 1013.3
20260510223257 65 236 0.0 0.0 0.00 0.00 0.00 94 1013.1
20260510222754 65 236 0.0 0.0 0.00 0.00 0.00 94 1013.2
20260510222251 65 236 0.0 0.0 0.00 0.00 0.00 94 1013.3
20260510221746 65 236 0.0 0.0 0.00 0.00 0.00 94 1013.3
20260510221243 65 242 0.0 0.0 0.00 0.00 0.00 94 1013.3
20260510220740 65 239 0.0 0.0 0.00 0.00 0.00 94 1013.2
20260510220235 66 239 0.0 0.0 0.00 0.00 0.00 93 1013.2
20260510215732 67 174 0.0 0.0 0.00 0.00 0.00 90 1013.0
20260510215230 68 289 0.0 0.0 0.00 0.00 0.00 86 1013.5
20260510214727 69 312 0.0 0.0 0.00 0.00 0.00 81 1013.7
20260510214224 70 310 0.0 0.0 0.00 0.00 0.00 76 1013.8
20260510213721 71 318 0.0 0.0 0.00 0.00 0.00 72 1013.1
20260510213217 72 318 0.0 0.0 0.00 0.00 0.00 70 1013.2
20260510212713 73 318 0.0 0.0 0.00 0.00 0.00 67 1013.2
20260510212211 74 303 0.0 0.0 0.00 0.00 0.00 64 1012.9
20260510211707 74 271 0.0 0.0 0.00 0.00 0.00 59 1012.8
20260510211202 74 271 0.0 0.0 0.00 0.00 0.00 59 1012.4
20260510210659 74 271 0.0 0.0 0.00 0.00 0.00 59 1012.7
20260510210154 74 271 0.0 0.0 0.00 0.00 0.00 58 1012.3
20260510205654 74 270 0.0 0.0 0.00 0.00 0.00 56 1012.3
20260510205150 74 268 0.0 0.0 0.00 0.00 0.00 58 1012.3
20260510204646 74 264 0.0 0.0 0.00 0.00 0.00 61 1012.3
20260510204143 74 263 0.0 0.0 0.00 0.00 0.00 64 1012.4
20260510203640 73 263 0.0 0.0 0.00 0.00 0.00 68 1012.5
20260510203137 73 263 0.0 0.0 0.00 0.00 0.00 68 1012.3
20260510202636 72 263 0.0 0.0 0.00 0.00 0.00 68 1012.5
20260510202132 72 263 0.0 0.0 0.00 0.00 0.00 70 1012.3
20260510201630 72 263 0.0 0.0 0.00 0.00 0.00 71 1012.5
20260510201126 72 263 0.0 0.0 0.00 0.00 0.00 69 1012.4
20260510200622 72 263 0.0 0.0 0.00 0.00 0.00 69 1012.5
20260510200121 72 263 0.0 0.0 0.00 0.00 0.00 70 1012.7
20260510195618 72 263 0.0 0.0 0.00 0.00 0.00 69 1012.6
20260510195114 72 263 0.0 0.0 0.00 0.00 0.00 70 1012.7
20260510194613 72 262 0.0 0.0 0.00 0.00 0.00 68 1012.9
20260510194110 73 262 0.0 0.0 0.00 0.00 0.00 64 1012.9
20260510193610 74 255 0.0 0.0 0.00 0.00 0.00 63 1013.1
20260510193106 75 330 0.0 0.0 0.00 0.00 0.00 58 1013.1
20260510192601 75 277 0.0 0.0 0.00 0.00 0.00 57 1012.9
20260510192057 75 282 0.0 0.0 0.00 0.00 0.00 56 1013.1
20260510191554 75 293 0.0 0.0 0.00 0.00 0.00 56 1013.0
20260510191051 75 311 0.0 0.0 0.00 0.00 0.00 56 1013.0
20260510190548 75 16 0.0 0.0 0.00 0.00 0.00 55 1012.9
20260510190046 76 17 0.0 0.0 0.00 0.00 0.00 55 1013.1
20260510185542 76 32 0.0 0.0 0.00 0.00 0.00 54 1013.0
20260510185040 76 276 0.0 0.0 0.00 0.00 0.00 52 1012.9
20260510184537 77 293 0.0 0.0 0.00 0.00 0.00 53 1012.8
20260510184032 77 292 0.0 0.0 0.00 0.00 0.00 50 1012.5
20260510183527 77 298 0.0 0.0 0.00 0.00 0.00 50 1012.9
20260510183022 78 289 0.0 0.0 0.00 0.00 0.00 49 1012.9
20260510182514 78 350 0.0 0.0 0.00 0.00 0.00 49 1012.7
20260510182009 80 334 0.0 0.0 0.00 0.00 0.00 49 1012.8
20260510181508 81 336 0.0 0.0 0.00 0.00 0.00 45 1012.7
20260510181003 80 306 0.0 0.0 0.00 0.00 0.00 44 1012.9
20260510180500 80 324 0.0 0.0 0.00 0.00 0.00 47 1012.6
20260510175957 80 174 0.0 0.0 0.00 0.00 0.00 48 1013.0
20260510175453 79 357 0.0 0.0 0.00 0.00 0.00 48 1012.8
20260510174948 80 288 0.0 0.0 0.00 0.00 0.00 52 1013.0
20260510174447 79 286 0.0 0.0 0.00 0.00 0.00 50 1013.0
20260510173943 79 273 0.0 0.0 0.00 0.00 0.00 47 1013.0
20260510173439 78 298 0.0 0.0 0.00 0.00 0.00 49 1012.9
20260510172936 78 244 0.0 0.0 0.00 0.00 0.00 50 1012.7
20260510172431 77 275 0.0 0.0 0.00 0.00 0.00 56 1012.9
20260510171928 77 309 0.0 0.0 0.00 0.00 0.00 54 1013.0
20260510171425 76 319 0.0 0.0 0.00 0.00 0.00 54 1012.9
20260510170922 76 328 0.0 0.0 0.00 0.00 0.00 54 1013.1
20260510170418 76 273 0.0 0.0 0.00 0.00 0.00 57 1013.0
20260510165914 75 322 0.0 0.0 0.00 0.00 0.00 55 1013.2
20260510165410 75 284 0.0 0.0 0.00 0.00 0.00 58 1013.0
20260510164907 74 284 0.0 0.0 0.00 0.00 0.00 59 1013.3
20260510164405 74 284 0.0 0.0 0.00 0.00 0.00 57 1013.3
20260510163905 74 286 0.0 0.0 0.00 0.00 0.00 58 1013.4
20260510163401 73 277 0.0 0.0 0.00 0.00 0.00 56 1013.4
20260510162855 73 315 0.0 0.0 0.00 0.00 0.00 61 1013.1
20260510162353 72 315 0.0 0.0 0.00 0.00 0.00 59 1013.2
20260510161848 73 279 0.0 0.0 0.00 0.00 0.00 60 1013.2
20260510161344 72 290 0.0 0.0 0.00 0.00 0.00 59 1013.0
20260510160842 71 289 0.0 0.0 0.00 0.00 0.00 61 1013.2
20260510160338 71 308 0.0 0.0 0.00 0.00 0.00 65 1013.3
20260510155832 71 268 0.0 0.0 0.00 0.00 0.00 64 1013.2
20260510155330 70 287 0.0 0.0 0.00 0.00 0.00 71 1013.4
20260510154825 70 298 0.0 0.0 0.00 0.00 0.00 71 1013.3
20260510154321 69 330 0.0 0.0 0.00 0.00 0.00 71 1013.8
20260510153816 69 304 0.0 0.0 0.00 0.00 0.00 73 1013.7
20260510153312 69 320 0.0 0.0 0.00 0.00 0.00 72 1013.6
20260510152809 68 322 0.0 0.0 0.00 0.00 0.00 73 1013.7
20260510152307 68 316 0.0 0.0 0.00 0.00 0.00 76 1013.6
20260510151802 68 307 0.0 0.0 0.00 0.00 0.00 77 1013.7
20260510151300 67 321 0.0 0.0 0.00 0.00 0.00 77 1013.7
20260510150755 67 275 0.0 0.0 0.00 0.00 0.00 79 1013.7
20260510150252 66 292 0.0 0.0 0.00 0.00 0.00 78 1013.5
20260510145748 66 200 0.0 0.0 0.00 0.00 0.00 81 1013.4
20260510145245 65 195 0.0 1.0 0.00 0.00 0.00 81 1013.7
20260510144741 65 268 0.0 0.0 0.00 0.00 0.00 83 1013.5
20260510144238 64 248 0.0 0.0 0.00 0.00 0.00 84 1013.6
20260510143737 64 248 0.0 0.0 0.00 0.00 0.00 86 1013.6
20260510143234 63 247 0.0 0.0 0.00 0.00 0.00 86 1013.9
20260510142731 62 239 0.0 0.0 0.00 0.00 0.00 88 1013.7
20260510142228 62 202 0.0 0.0 0.00 0.00 0.00 88 1013.5
20260510141725 62 287 0.0 0.0 0.00 0.00 0.00 89 1013.8
20260510141223 61 300 0.0 0.0 0.00 0.00 0.00 91 1013.6
20260510140719 60 281 0.0 0.0 0.00 0.00 0.00 92 1013.8
20260510140214 59 302 0.0 0.0 0.00 0.00 0.00 92 1013.9
20260510135709 59 305 0.0 0.0 0.00 0.00 0.00 92 1013.8
20260510135204 59 306 0.0 0.0 0.00 0.00 0.00 93 1013.5
20260510134702 58 294 0.0 0.0 0.00 0.00 0.00 96 1013.5
20260510134159 58 294 0.0 0.0 0.00 0.00 0.00 97 1013.7
20260510133655 57 312 0.0 0.0 0.00 0.00 0.00 98 1013.7
20260510133150 56 311 0.0 0.0 0.00 0.00 0.00 98 1013.8
20260510132647 56 314 0.0 0.0 0.00 0.00 0.00 99 1013.7
20260510132144 56 322 0.0 0.0 0.00 0.00 0.00 99 1013.8
20260510131642 56 348 0.0 0.0 0.00 0.00 0.00 99 1013.9
20260510131139 55 350 0.0 0.0 0.00 0.00 0.00 99 1013.8
20260510130636 55 357 0.0 0.0 0.00 0.00 0.00 99 1013.7
20260510130133 55 343 0.0 0.0 0.00 0.00 0.00 99 1013.8
20260510125629 54 343 0.0 0.0 0.00 0.00 0.00 99 1013.7
20260510125126 54 344 0.0 0.0 0.00 0.00 0.00 99 1013.6
20260510124623 54 345 0.0 0.0 0.00 0.00 0.00 99 1013.7
20260510124119 54 13 0.0 0.0 0.00 0.00 0.00 99 1013.4
20260510123614 54 28 0.0 0.0 0.00 0.00 0.00 99 1013.6
20260510123111 54 50 0.0 0.0 0.00 0.00 0.00 99 1013.5
20260510122607 53 337 0.0 0.0 0.00 0.00 0.00 99 1013.5
20260510122103 53 337 0.0 0.0 0.00 0.00 0.00 99 1013.5
20260510121601 53 141 0.0 0.0 0.00 0.00 0.00 99 1013.1
20260510121057 53 138 0.0 0.0 0.00 0.00 0.00 99 1013.5
20260510120555 53 138 0.0 0.0 0.00 0.00 0.00 99 1013.3
20260510120050 53 139 0.0 0.0 0.00 0.00 0.00 99 1013.2
20260510115547 53 138 0.0 0.0 0.00 0.00 0.00 99 1013.0
20260510115044 53 132 0.0 0.0 0.00 0.00 0.00 99 1013.2
20260510114540 53 93 0.0 0.0 0.00 0.00 0.00 99 1013.2
20260510114036 53 91 0.0 0.0 0.00 0.00 0.00 99 1013.3
20260510113531 53 89 0.0 0.0 0.00 0.00 0.00 99 1012.9
20260510113030 53 89 0.0 0.0 0.00 0.00 0.00 99 1013.0
20260510112526 52 90 0.0 0.0 0.00 0.00 0.00 99 1012.9
20260510112022 52 42 0.0 0.0 0.00 0.00 0.00 99 1012.7
20260510111519 52 45 0.0 0.0 0.00 0.00 0.00 99 1012.6
20260510111015 52 63 0.0 0.0 0.00 0.00 0.00 99 1012.7
20260510110511 52 102 0.0 0.0 0.00 0.00 0.00 99 1012.6
20260510110008 52 102 0.0 0.0 0.00 0.00 0.00 99 1012.3
20260510105502 52 38 0.0 0.0 0.00 0.00 0.00 99 1012.7
20260510104958 52 65 0.0 0.0 0.00 0.00 0.00 99 1012.4
20260510104455 52 62 0.0 0.0 0.00 0.00 0.00 99 1012.2
20260510103951 52 38 0.0 0.0 0.00 0.00 0.00 99 1012.1
20260510103449 52 52 0.0 0.0 0.00 0.00 0.00 99 1012.1
20260510102944 52 44 0.0 0.0 0.00 0.00 0.00 99 1012.1
20260510102440 52 43 0.0 0.0 0.00 0.00 0.00 99 1012.1
20260510101937 52 35 0.0 0.0 0.00 0.00 0.00 99 1012.1
20260510101435 52 356 0.0 0.0 0.00 0.00 0.00 99 1012.3
20260510100933 52 353 0.0 0.0 0.00 0.00 0.00 99 1012.3
20260510100428 52 352 0.0 0.0 0.00 0.00 0.00 99 1012.5
20260510095925 52 352 0.0 0.0 0.00 0.00 0.00 99 1012.3
20260510095421 52 358 0.0 0.0 0.00 0.00 0.00 99 1012.2
20260510094920 52 0 0.0 0.0 0.00 0.00 0.00 99 1011.9
20260510094414 52 0 0.0 0.0 0.00 0.00 0.00 99 1011.8
20260510093911 52 0 0.0 0.0 0.00 0.00 0.00 99 1011.9
20260510093407 52 0 0.0 0.0 0.00 0.00 0.00 99 1012.0
20260510092903 52 355 0.0 0.0 0.00 0.00 0.00 99 1012.0
20260510092400 52 344 0.0 0.0 0.00 0.00 0.00 99 1011.9
20260510091855 52 344 0.0 0.0 0.00 0.00 0.00 99 1011.8
20260510091353 52 111 0.0 0.0 0.00 0.00 0.00 99 1011.5
20260510090849 52 74 0.0 0.0 0.00 0.00 0.00 99 1011.4
20260510090345 52 72 0.0 0.0 0.00 0.00 0.00 99 1011.4
20260510085841 52 72 0.0 0.0 0.00 0.00 0.00 99 1011.1
20260510085342 52 72 0.0 0.0 0.00 0.00 0.00 99 1011.2
20260510084838 51 72 0.0 0.0 0.00 0.00 0.00 99 1011.2
20260510084335 51 72 0.0 0.0 0.00 0.00 0.00 99 1011.5
20260510083831 51 72 0.0 0.0 0.00 0.00 0.00 99 1011.1
20260510083328 51 72 0.0 0.0 0.00 0.00 0.00 99 1011.3
20260510082824 51 72 0.0 0.0 0.00 0.00 0.00 99 1011.3
20260510082322 51 72 0.0 0.0 0.00 0.00 0.00 99 1011.4
20260510081820 51 72 0.0 0.0 0.00 0.00 0.00 99 1011.2
20260510081316 51 72 0.0 0.0 0.00 0.00 0.00 99 1011.4
20260510080812 51 72 0.0 0.0 0.00 0.00 0.00 99 1011.3
20260510080307 51 72 0.0 0.0 0.00 0.00 0.00 99 1011.2
20260510075805 51 72 0.0 0.0 0.00 0.00 0.00 99 1011.4
20260510075305 51 72 0.0 0.0 0.00 0.00 0.00 99 1011.0
20260510074759 51 72 0.0 0.0 0.00 0.00 0.00 99 1011.1
20260510074256 51 72 0.0 0.0 0.00 0.00 0.00 99 1011.1
20260510073752 51 72 0.0 0.0 0.00 0.00 0.00 99 1011.0
20260510073248 51 72 0.0 0.0 0.00 0.00 0.00 99 1010.9
20260510072743 51 73 0.0 0.0 0.00 0.00 0.00 99 1010.8
20260510072240 51 73 0.0 0.0 0.00 0.00 0.00 99 1010.7
20260510071737 51 73 0.0 0.0 0.00 0.00 0.00 99 1010.6
20260510071234 51 73 0.0 0.0 0.00 0.00 0.00 99 1010.4
20260510070732 51 72 0.0 0.0 0.00 0.00 0.00 99 1010.6
20260510070229 51 71 0.0 0.0 0.00 0.00 0.00 99 1010.6
20260510065723 51 71 0.0 0.0 0.00 0.00 0.00 99 1010.7
20260510065220 51 71 0.0 0.0 0.00 0.00 0.00 99 1010.6
20260510064717 51 71 0.0 0.0 0.00 0.00 0.00 99 1010.6
20260510064215 51 71 0.0 0.0 0.00 0.00 0.00 99 1010.8
20260510063711 51 69 0.0 0.0 0.00 0.00 0.00 99 1010.8
20260510063207 51 69 0.0 0.0 0.00 0.00 0.00 99 1010.8
20260510062704 51 69 0.0 0.0 0.00 0.00 0.00 99 1010.8
20260510062200 51 69 0.0 0.0 0.00 0.00 0.00 99 1010.8
20260510061655 51 69 0.0 0.0 0.00 0.00 0.00 99 1010.8
20260510061153 52 69 0.0 0.0 0.00 0.00 0.00 99 1011.0
20260510060649 52 69 0.0 0.0 0.00 0.00 0.00 99 1010.6
20260510060146 52 69 0.0 0.0 0.00 0.00 0.00 99 1010.8
20260510055642 52 69 0.0 0.0 0.00 0.00 0.00 99 1010.8
20260510055140 52 69 0.0 0.0 0.00 0.00 0.00 99 1010.8
20260510054635 52 69 0.0 0.0 0.00 0.00 0.00 99 1011.0
20260510054131 52 68 0.0 0.0 0.00 0.00 0.00 99 1011.0
20260510053630 52 69 0.0 0.0 0.00 0.00 0.00 99 1011.1
20260510053127 52 67 0.0 0.0 0.00 0.00 0.00 99 1011.1
20260510052623 52 67 0.0 0.0 0.00 0.00 0.00 99 1010.8
20260510052120 52 67 0.0 0.0 0.00 0.00 0.00 99 1011.1
20260510051615 52 67 0.0 0.0 0.00 0.00 0.00 99 1011.1
20260510051112 52 67 0.0 0.0 0.00 0.00 0.00 99 1011.1
20260510050609 52 67 0.0 0.0 0.00 0.00 0.00 99 1011.0
20260510050106 53 67 0.0 0.0 0.00 0.00 0.00 99 1011.2
20260510045604 53 67 0.0 0.0 0.00 0.00 0.00 99 1011.4
20260510045059 53 67 0.0 0.0 0.00 0.00 0.00 99 1011.3
20260510044556 53 67 0.0 0.0 0.00 0.00 0.00 99 1011.2
20260510044054 53 67 0.0 0.0 0.00 0.00 0.00 99 1011.2
20260510043549 53 67 0.0 0.0 0.00 0.00 0.00 99 1011.5
20260510043045 53 67 0.0 0.0 0.00 0.00 0.00 99 1011.3
20260510042544 53 67 0.0 0.0 0.00 0.00 0.00 99 1011.4
20260510042040 53 67 0.0 0.0 0.00 0.00 0.00 99 1011.3
20260510041537 53 67 0.0 0.0 0.00 0.00 0.00 99 1011.5
20260510041034 53 67 0.0 0.0 0.00 0.00 0.00 99 1011.5
20260510040531 53 67 0.0 0.0 0.00 0.00 0.00 99 1011.5
20260510040027 53 67 0.0 0.0 0.00 0.01 0.01 99 1011.7
20260510035523 53 67 0.0 0.0 0.00 0.01 0.01 99 1011.4
20260510035023 53 67 0.0 0.0 0.00 0.01 0.01 99 1011.4
20260510034522 53 67 0.0 0.0 0.00 0.01 0.01 99 1011.5
20260510034018 53 63 0.0 0.0 0.00 0.01 0.01 99 1011.3
20260510033514 53 63 0.0 0.0 0.00 0.01 0.01 99 1011.1
20260510033012 53 178 0.0 0.0 0.00 0.01 0.01 99 1011.1
20260510032508 54 178 0.0 0.0 0.00 0.01 0.01 99 1011.0
20260510032008 54 178 0.0 0.0 0.00 0.01 0.01 99 1011.2
20260510031504 54 178 0.0 0.0 0.00 0.01 0.01 99 1011.0
20260510031000 54 178 0.0 0.0 0.00 0.01 0.01 99 1011.0
20260510030456 54 178 0.0 0.0 0.00 0.01 0.01 99 1010.8
20260510025953 54 178 0.0 0.0 0.00 0.01 0.01 99 1010.7
20260510025450 54 178 0.0 0.0 0.00 0.01 0.01 99 1010.9
20260510024948 54 178 0.0 0.0 0.00 0.01 0.01 99 1011.1
20260510024444 54 178 0.0 0.0 0.00 0.01 0.01 99 1010.9
20260510023940 54 178 0.0 0.0 0.00 0.01 0.01 99 1011.1
20260510023437 54 178 0.0 0.0 0.00 0.01 0.01 99 1011.1
20260510022934 54 178 0.0 0.0 0.00 0.01 0.01 99 1010.9
20260510022433 54 178 0.0 0.0 0.00 0.01 0.01 99 1010.9
20260510021932 54 178 0.0 0.0 0.00 0.01 0.01 99 1010.9
20260510021430 55 178 0.0 0.0 0.00 0.01 0.01 99 1011.0
20260510020926 55 178 0.0 0.0 0.00 0.01 0.01 99 1011.0
20260510020421 55 178 0.0 0.0 0.00 0.01 0.01 99 1010.9
20260510015917 55 178 0.0 0.0 0.00 0.01 0.01 99 1010.5
20260510015413 55 178 0.0 0.0 0.00 0.01 0.01 99 1010.7
20260510014908 55 178 0.0 0.0 0.00 0.01 0.01 99 1010.8
20260510014406 55 178 0.0 0.0 0.00 0.01 0.01 99 1010.8
20260510013902 55 179 0.0 0.0 0.00 0.01 0.01 99 1010.7
20260510013357 55 179 0.0 0.0 0.00 0.01 0.01 99 1011.1
20260510012852 55 179 0.0 0.0 0.00 0.01 0.01 99 1010.8
20260510012347 55 179 0.0 0.0 0.00 0.01 0.01 99 1010.8
20260510011842 56 179 0.0 0.0 0.00 0.01 0.01 99 1010.8
20260510011338 56 179 0.0 0.0 0.00 0.01 0.01 99 1010.6
20260510010834 56 179 0.0 0.0 0.00 0.01 0.01 99 1010.7
20260510010332 56 179 0.0 0.0 0.00 0.01 0.01 99 1010.5
20260510005828 56 179 0.0 0.0 0.00 0.01 0.01 99 1010.5
20260510005325 56 179 0.0 0.0 0.00 0.01 0.01 99 1010.7
20260510004823 56 179 0.0 0.0 0.00 0.01 0.01 99 1010.6
20260510004320 56 179 0.0 0.0 0.00 0.01 0.01 99 1010.7
20260510003818 56 179 0.0 0.0 0.00 0.01 0.01 99 1010.5
20260510003314 56 179 0.0 0.0 0.00 0.01 0.01 99 1010.6
20260510002813 56 179 0.0 0.0 0.00 0.01 0.01 99 1010.6
20260510002310 56 179 0.0 0.0 0.00 0.01 0.01 99 1010.5
20260510001807 56 179 0.0 0.0 0.00 0.01 0.01 99 1010.6
20260510001305 56 179 0.0 0.0 0.00 0.01 0.01 99 1010.4
20260510000800 57 179 0.0 0.0 0.00 0.01 0.01 99 1010.5
20260510000258 57 179 0.0 0.0 0.00 0.01 0.01 99 1010.7
20260509235756 57 179 0.0 0.0 0.00 0.01 0.01 99 1010.5
20260509235252 57 179 0.0 0.0 0.00 0.01 0.01 99 1010.4
20260509234747 57 179 0.0 0.0 0.00 0.01 0.01 99 1010.7
20260509234244 57 179 0.0 0.0 0.00 0.01 0.01 99 1010.5
20260509233743 57 179 0.0 0.0 0.00 0.01 0.01 98 1010.4
20260509233240 57 179 0.0 0.0 0.00 0.01 0.01 98 1010.3
20260509232736 57 179 0.0 0.0 0.00 0.01 0.01 98 1010.4
20260509232233 57 178 0.0 0.0 0.00 0.01 0.01 98 1010.3
20260509231729 58 179 0.0 0.0 0.00 0.01 0.01 98 1010.1
20260509231227 58 174 0.0 0.0 0.00 0.01 0.01 98 1009.9